This is the latest recevied weather packets stored in our database for station/object WV8BRW. If no packets are shown the sender has not sent any weather packets the latest 10 day(s).
| Time | Temp. | Humidity | Pressure | Rain* | Wind** | Luminosity | Snow |
|---|---|---|---|---|---|---|---|
| 1777651134 | 16.67° C | 55% | 1011.5 hPa | 0 mm | - | 775 W/m² | - |
| 1777650830 | 16.67° C | 54% | 1011.4 hPa | 0 mm | - | 359 W/m² | - |
| 1777650527 | 16.11° C | 64% | 1011.4 hPa | 0 mm | - | 628 W/m² | - |
| 1777650225 | 15.56° C | 62% | 1011.4 hPa | 0 mm | - | 785 W/m² | - |
| 1777649922 | 15.56° C | 64% | 1011.5 hPa | 0 mm | - | 411 W/m² | - |
| 1777649619 | 15.56° C | 64% | 1011.4 hPa | 0 mm | - | 364 W/m² | - |
| 1777649315 | 15.56° C | 62% | 1011.5 hPa | 0 mm | - | 468 W/m² | - |
| 1777649012 | 15° C | 63% | 1011.7 hPa | 0 mm | - | 412 W/m² | - |
| 1777648710 | 15° C | 67% | 1011.5 hPa | 0 mm | - | 313 W/m² | - |
| 1777648406 | 15° C | 65% | 1011.7 hPa | 0 mm | - | 293 W/m² | - |
| 1777648102 | 15° C | 72% | 1011.8 hPa | 0 mm | - | 303 W/m² | - |
| 1777647799 | 15° C | 64% | 1011.8 hPa | 0 mm | - | 317 W/m² | - |
| 1777647495 | 15° C | 69% | 1012 hPa | 0 mm | - | 361 W/m² | - |
| 1777647192 | 15° C | 66% | 1011.8 hPa | 0 mm | - | 788 W/m² | - |
| 1777646889 | 15° C | 63% | 1012 hPa | 0 mm | - | 317 W/m² | - |
| 1777646584 | 15° C | 65% | 1012.1 hPa | 0 mm | - | 314 W/m² | - |
| 1777646281 | 14.44° C | 68% | 1012.2 hPa | 0 mm | - | 309 W/m² | - |
| 1777645978 | 13.33° C | 64% | 1012.1 hPa | 0 mm | - | 365 W/m² | - |
| 1777645675 | 13.89° C | 67% | 1012.3 hPa | 0 mm | - | 285 W/m² | - |
| 1777645371 | 13.33° C | 74% | 1012.2 hPa | 0 mm | - | 293 W/m² | - |
| 1777645066 | 13.33° C | 72% | 1012.4 hPa | 0 mm | - | 343 W/m² | - |
| 1777644764 | 13.89° C | 72% | 1012.1 hPa | 0 mm | - | 347 W/m² | - |
| 1777644461 | 13.33° C | 71% | 1012 hPa | 0 mm | - | 333 W/m² | - |
| 1777644157 | 12.78° C | 72% | 1012.4 hPa | 0 mm | - | 281 W/m² | - |
| 1777643853 | 12.78° C | 78% | 1012.4 hPa | 0 mm | - | 217 W/m² | - |
* Rain latest hour (hover to see other rain measurements)
** Current wind speed in m/s (hover to see current wind gust speed)